Find Kosmos-1197

NORAD ID: 11880 Int'l Des: 1980-058 Owner: GUKOSR Country: SU operational
LEOCIRCULAR

Live-Position

3D-Globus wird geladen...

Über Kosmos-1197

Beschreibung wird geladen...

Nächste Überflüge

Passes for default location (London). Set your location on the main map for personalized predictions.

Höhenverlauf

Loading altitude history...

Zweizeiliger Elementsatz

1 11880U 80058F 26106.21995464 -.00000014 00000-0 95117-5 0 9998
2 11880 74.0190 204.8528 0013094 157.1917 202.9715 12.46010722 81817
Epoch: 16. Apr. 2026 • Age: 11 hours

Aktueller Status

Höhe 1497.9 km
Geschwindigkeit 7.12 km/s
Subsatellitenpunkt -50.25°S, 42.89°W
Startdatum 9. Juli 1980
Alter 45.7 years
Typ other

Technische Details

Klassifizierung Payload
Masse 60.00 kg
Trockenmasse 60.00 kg
Gesamtmasse 60.00 kg
Länge 0.80 m
Durchmesser 0.80 m
Spannweite 0.80 m
Form Poly
Hersteller NPOPM
Bus-Typ Strela-1 11F625
Phasenstatus In Orbit
Besitzer/Staat GUKOSR/SU

Most Searched